Regional Weather Roundup
Issued by NWS Cleveland, OH

Home | Current Version | Previous Version | Text Only | Print | Product List | Glossary Off
Versions: 1 2 3 4 5 6 7 8 9 10 11 12 13 14 15 16 17 18 19 20 21 22 23 24 25 26 27 28 29 30 31 32 33 34 35 36 37 38 39 40 41 42 43 44 45 46 47 48 49 50

000
ASUS41 KCLE 261112
RWRCLE
OHIO REGIONAL WEATHER ROUNDUP
NATIONAL WEATHER SERVICE WILMINGTON, OH
600 AM EST SUN FEB 26 2017

NOTE: "FAIR" INDICATES FEW OR NO CLOUDS BELOW 12,000 FEET WITH NO
SIGNIFICANT WEATHER AND/OR OBSTRUCTIONS TO VISIBILITY.

OHZ001>008-015>018-024>027-034-035-043-044-261200-
   NORTHWEST OHIO

CITY           SKY/WX    TMP DP  RH WIND       PRES   REMARKS
DEFIANCE       FAIR      23  17  78 CALM      30.10R
FINDLAY        CLOUDY    26  16  65 W8        30.09R WCI  18
TOLEDO EXPRESS FAIR      24  20  84 W7        30.08R WCI  16
TOLEDO EXEC    FAIR      24  20  84 W7        30.09R WCI  16
LIMA           FAIR      23  20  88 S5        30.09R WCI  17
$$

OHZ009>014-019>023-028>033-038-089-261200-
   NORTHEAST OHIO

CITY           SKY/WX    TMP DP  RH WIND       PRES   REMARKS
CLE-HOPKINS    FLURRIES  27  17  66 W13       30.09R WCI  16
CLE-LAKEFRONT  CLOUDY    27  18  69 SW16      30.07R WCI  15
CUY CO. ARPT   NOT AVBL
LORAIN-ELYRIA  CLOUDY    25  14  63 W12       30.07R WCI  14
ASHTABULA      LGT SNOW  24  18  77 W10       30.04R WCI  14
AKRON-CANTON   CLOUDY    26  16  65 W13G18    30.04R WCI  15
WOOSTER        CLOUDY    24  18  77 NW12      30.06R WCI  13
MANSFIELD      MOCLDY    23  17  78 W6        30.05R WCI  16
YOUNGSTOWN     FLURRIES  25  14  63 W10       30.02R WCI  15
$$

OHZ042-051>053-060>062-070>072-077>081-261200-
  SOUTHWEST OHIO

CITY           SKY/WX    TMP DP  RH WIND       PRES   REMARKS
CINC-COVINGTON FAIR      23  15  71 W5        30.14R WCI  17
CINC-LUNKEN    FAIR      27  16  63 CALM      30.18R
HAMILTON       FAIR      20  16  84 CALM      30.16R
DAYTON         FAIR      23  15  71 W7        30.12R WCI  15
WRIGHT-PAT AFB FAIR      26  15  62 NW7       30.12R WCI  19
DAYTON GENERAL FAIR      24  17  74 W5        30.11R WCI  18
WILMINGTON     CLOUDY    25  15  66 W8        30.11R WCI  16
$$

OHZ036-037-039>041-045>050-054>059-063>069-073>076-082>088-261200-
  CENTRAL AND SOUTHEAST OHIO

CITY           SKY/WX    TMP DP  RH WIND       PRES   REMARKS
COLUMBUS       CLOUDY    30  16  56 NW12      30.10R WCI  20
OSU AIRPORT    CLOUDY    27  16  63 NW9       30.10R WCI  18
BOLTON FIELD   CLOUDY    28  18  66 NW6       30.11R WCI  21
RICKENBACK AFB CLOUDY    28  18  66 W7        30.11R WCI  20
NEWARK         CLOUDY    29  18  63 W9        30.09R WCI  20
MARION         CLOUDY    25  16  68 W6        30.09R WCI  18
LANCASTER      CLOUDY    29  16  58 W10       30.10R WCI  20
ZANESVILLE     CLOUDY    30  15  53 W8        30.08R WCI  22
NEW PHILLY     CLOUDY    28  20  71 W9        30.08R WCI  19
$$




USA.gov is the U.S. government's official web portal to all federal, state and local government web resources and services.